Weather History for KOLM - July, 2013

Change the Weather History Date:

Sunday, July 21, 2013

  Actual Average Record
Temperature  
Mean Temperature 65 °F 65 °F  
Max Temperature 77 °F 78 °F 101 °F (2006)
Min Temperature 52 °F 51 °F 40 °F (1966)
Degree Days  
Heating Degree Days 0 2  
Month to date heating degree days 44 60  
Since 1 June heating degree days 180 248  
Since 1 July heating degree days 44 60  
Cooling Degree Days 0 2  
Month to date cooling degree days 21 26  
Year to date cooling degree days 49 40  
Since 1 June cooling degree days 47 37  
Growing Degree Days 16 (Base 50)    
Moisture  
Dew Point 54 °F    
Average Humidity 77    
Maximum Humidity 100    
Minimum Humidity 54    
Precipitation  
Precipitation 0.00 in 0.02 in 0.45 in (1963)
Month to date precipitation T 0.49  
Year to date precipitation 21.42 26.52  
Sea Level Pressure  
Sea Level Pressure 29.98 in    
Wind  
Wind Speed 6 mph (SSW)    
Max Wind Speed 12 mph    
Max Gust Speed 15 mph    
Visibility 10 miles    
Events      
T = Trace of Precipitation, MM = Missing Value Source: NWS Daily Summary

Daily Weather History Graph

Daily Weather History Graph

Search for Another Location

Airport or City:

Trip Planner

Search our weather history database for the weather conditions in past years. The results will help you decide how hot, cold, wet, or windy it might be!

Date:

Astronomy

Jul. 21, 2013 Rise Set
Actual Time 5:38 AM PDT 8:56 PM PDT
Civil Twilight 5:01 AM PDT 9:33 PM PDT
Nautical Twilight 4:12 AM PDT 10:22 PM PDT
Astronomical Twilight 3:10 AM PDT 11:23 PM PDT
Moon 7:56 PM PDT (7/21) 4:32 AM PDT (7/21)
Length of Visible Light 16h 32m
Length of Day
15h 18m
Waxing Gibbous, 99% of the Moon is Illuminated
Jul 21
Waxing Gibbous
Jul 22
Full
Jul 29
Last Quarter
Aug 6
New
Aug 14
First Quarter

Hourly Weather History & Observations

Time (PDT) Temp. Dew Point Humidity Pressure Visibility Wind Dir Wind Speed Gust Speed Precip Events Conditions
12:54 AM 54.0 °F 51.1 °F 90% 30.00 in 10.0 mi Calm Calm - N/A   Clear
1:45 AM 53.1 °F 51.1 °F 93% 29.99 in 10.0 mi South 3.5 mph - N/A   Scattered Clouds
1:54 AM 52.0 °F 51.1 °F 97% 30.00 in 10.0 mi South 3.5 mph - N/A   Mostly Cloudy
2:01 AM 53.1 °F 51.1 °F 93% 29.99 in 10.0 mi South 3.5 mph - N/A   Scattered Clouds
2:36 AM 52.0 °F 50.0 °F 93% 29.99 in 10.0 mi SSW 4.6 mph - N/A   Scattered Clouds
2:46 AM 52.0 °F 51.1 °F 97% 29.99 in 10.0 mi SSW 4.6 mph - N/A   Mostly Cloudy
2:54 AM 53.1 °F 52.0 °F 96% 29.99 in 10.0 mi SSW 4.6 mph - N/A   Mostly Cloudy
3:19 AM 54.0 °F 52.0 °F 93% 29.99 in 10.0 mi SSW 5.8 mph - N/A   Overcast
3:54 AM 54.0 °F 53.1 °F 97% 29.99 in 10.0 mi SSW 4.6 mph - N/A   Overcast
4:54 AM 54.0 °F 53.1 °F 97% 29.99 in 10.0 mi South 4.6 mph - N/A   Overcast
5:54 AM 54.0 °F 53.1 °F 97% 29.99 in 10.0 mi South 4.6 mph - N/A   Overcast
6:54 AM 54.0 °F 53.1 °F 97% 30.00 in 6.0 mi SSW 4.6 mph - N/A   Overcast
7:54 AM 54.0 °F 52.0 °F 93% 29.99 in 10.0 mi Variable 4.6 mph - N/A   Overcast
8:54 AM 55.9 °F 53.1 °F 90% 30.01 in 10.0 mi SW 5.8 mph - N/A   Overcast
9:54 AM 57.0 °F 53.1 °F 87% 30.01 in 10.0 mi SW 6.9 mph - N/A   Overcast
10:54 AM 59.0 °F 53.1 °F 81% 30.00 in 10.0 mi South 4.6 mph - N/A   Overcast
11:54 AM 62.1 °F 54.0 °F 75% 29.99 in 10.0 mi South 6.9 mph - N/A   Overcast
12:54 PM 66.0 °F 55.0 °F 68% 29.98 in 10.0 mi Variable 4.6 mph - N/A   Mostly Cloudy
1:25 PM 68.0 °F 55.9 °F 65% 29.98 in 10.0 mi SSW 5.8 mph - N/A   Scattered Clouds
1:54 PM 69.1 °F 55.9 °F 63% 29.98 in 10.0 mi South 8.1 mph - N/A   Scattered Clouds
2:54 PM 73.0 °F 57.0 °F 57% 29.97 in 10.0 mi Variable 3.5 mph - N/A   Clear
3:54 PM 75.0 °F 57.9 °F 55% 29.95 in 10.0 mi ENE 6.9 mph - N/A   Clear
4:54 PM 75.9 °F 57.9 °F 54% 29.94 in 10.0 mi NNE 6.9 mph - N/A   Clear
5:54 PM 73.9 °F 57.9 °F 57% 29.93 in 10.0 mi SSW 8.1 mph - N/A   Clear
6:54 PM 71.1 °F 57.0 °F 61% 29.93 in 10.0 mi SSW 9.2 mph - N/A   Clear
7:54 PM 66.9 °F 55.9 °F 68% 29.94 in 10.0 mi SSW 9.2 mph - N/A   Clear
8:54 PM 62.1 °F 55.0 °F 78% 29.95 in 10.0 mi SW 5.8 mph - N/A   Clear
9:54 PM 57.0 °F 54.0 °F 89% 29.96 in 10.0 mi South 4.6 mph - N/A   Clear
10:54 PM 55.0 °F 53.1 °F 93% 29.97 in 10.0 mi South 5.8 mph - N/A   Clear
11:43 PM 55.0 °F 52.0 °F 89% 29.97 in 10.0 mi South 3.5 mph - N/A   Mostly Cloudy
11:54 PM 55.0 °F 53.1 °F 93% 29.98 in 10.0 mi SSE 4.6 mph - N/A   Overcast